Weather in Treshchevskiy

Russia / Kemerovo Oblast     55°07′29″N   85°46′01″E
temp.,
°C
wind,
m/s
gust,
m/s
humid.,
%
clouds,
%
prec.,
mm/h
press.,
hPa
HPBL,
m
28 july, wed
wed2801:00+14wsw126993 0.1 100913
04:00+14s1165100 0.0 100912
07:00+14w2269100 0.0 101044
10:00+16nnw1166100 0.0 1010235
13:00+17nnw1162100 0.0 1010469
16:00+20nnw124917 0.0 10091795
19:00+17wsw1162100 0.0 100911
22:00+16wnw1160100 0.0 101011
29 july, thu
thu2901:00+15ne1164100 0.0 101010
04:00+13ese007098 0.0 101010
07:00+15ese007282 0.0 101016
10:00+18sse226168 0.1 1010472
13:00+21sse224596 0.1 10092303
16:00+21ese32505 0.0 10081066
19:00+20ese2358100 0.0 1008419
22:00+15e1164100 0.0 100811
30 july, fri
fri3001:00+14e1166100 0.0 100811
04:00+12nnw1169100 0.0 100910
07:00+14nw2270100 0.0 100955
10:00+19nnw2357100 0.0 1010439
13:00+22nw334756 0.0 10101397
16:00+22nw54565 0.1 10111304
19:00+21nw34622 0.5 10121170
22:00+14n22670 0.0 101412
31 july, sat
sat3101:00+12wsw116447 0.0 101510
04:00+10sw007132 0.0 101610
07:00+13se2270100 0.0 101638
10:00+19se345845 0.0 1016434
13:00+22s34526 0.0 10151435
16:00+24sse3447100 0.0 10131873
19:00+22se346580 0.0 1013254
22:00+17se3475100 0.1 101357
1 august, sun
sun101:00+15se2269100 0.1 101311
04:00+16ese1163100 0.0 101211
07:00+16ene2265100 0.0 101222
10:00+17se246771 0.0 1012112
13:00+21se3357100 0.0 1012289
16:00+24se32485 0.0 1011803
19:00+24se23575 0.0 1010223
22:00+17se22715 0.0 101014